[[{"header":{"parameterUnit":"m.s-1","parameterCategory":1,"la1":30.2991,"la2":30.254,"lo1":-89.0895,"lo2":-89.0444,"dy":0.0017,"dx":0.0017,"nx":28,"ny":28,"refTime":"2025-04-20T21:00:00:Z","depth":0,"parameterNumber":2,"parameterNumberName":"U-component_of_WINDS"},"data":[0,0,0,0,0,0,0,0,0,0,0,0,0,0,0,0,0,0,0,0,0,0,0,0,0,0,0,0,0,0,0,0,0,0,0,0,0,0,0,0,0,0,0,0,0,0,0,0,0,0,0,0,0,0,0,0,0,0,-3.7876,-3.7877,0,-3.7978,-3.7979,-3.798,-3.7978,-3.7977,-3.7976,-3.7974,-3.8075,-3.8078,-3.8082,0,0,0,0,0,0,0,0,0,0,0,0,0,-3.7676,-3.7679,-3.7876,-3.7877,-3.7878,-3.7978,-3.7979,-3.798,-3.7979,-3.7977,-3.7975,-3.7974,-3.8073,-3.8078,-3.8083,0,0,0,0,0,0,0,0,0,0,0,0,0,-3.7768,-3.768,-3.7875,-3.7889,-3.7892,-3.7977,-3.7979,-3.7981,-3.7979,-3.7977,-3.7975,-3.7973,-3.8072,-3.8077,-3.8083,-3.816,0,0,-3.8101,-3.8104,0,0,0,0,0,0,0,0,-3.7763,-3.7776,-3.7886,-3.7889,-3.7891,-3.7963,-3.7945,-3.8041,-3.7979,-3.7946,-3.7974,-3.7972,-3.8039,-3.8047,-3.8071,-3.8165,-3.8169,-3.8102,-3.8105,-3.8108,-3.811,0,0,0,0,0,0,0,-3.7757,-3.7771,-3.7916,-3.7888,-3.7891,-3.7889,-3.79,-3.7963,-3.8002,-3.7948,-3.7949,-3.7961,-3.804,-3.8065,-3.8073,-3.8171,-3.8102,-3.8107,-3.811,-3.8113,-3.8333,-3.8335,0,0,0,0,0,0,-3.7748,-3.7766,-3.7913,-3.7919,-3.7821,-3.7895,-3.7907,-3.7942,-3.8002,-3.8009,-3.7963,-3.7961,-3.8056,-3.8066,-3.8077,-3.817,-3.8108,-3.8113,-3.8117,-3.8331,-3.8334,-3.8336,0,0,0,0,0,0,-3.7744,-3.7761,-3.7909,-3.7843,-3.7861,-3.79,-3.794,-3.7945,-3.7971,-3.8012,-3.8019,-3.7981,-3.8055,-3.8068,-3.814,-3.8174,-3.8116,-3.8121,-3.8328,-3.8332,-3.8335,-3.8358,0,0,0,0,0,0,-3.7738,-3.776,-3.779,-3.7843,-3.7865,-3.7971,-3.7942,-3.7949,-3.7981,-3.7979,-3.8032,-3.8038,-3.8054,-3.8131,-3.8146,-3.8181,-3.8126,-3.8325,-3.833,-3.8334,-3.8355,-3.8362,-3.8369,0,0,0,0,0,-3.7731,-3.7792,-3.7791,-3.7809,-3.7904,-3.7973,-3.7985,-3.8003,-3.7984,-3.8014,-3.8041,-3.8037,-3.8168,-3.8138,-3.8155,-3.8192,-3.8323,-3.8328,-3.8333,-3.8352,-3.8361,-3.8369,0,0,0,0,0,0,-3.7739,-3.7799,-3.7799,-3.7879,-3.7921,-3.7973,-3.8011,-3.8013,-3.806,-3.8056,-3.8075,-3.8087,-3.8158,-3.8183,-3.8148,-3.827,-3.8243,-3.8252,-3.8251,-3.826,-3.8267,-3.8259,-3.8131,0,0,0,0,0,-3.7751,-3.7803,-3.7852,-3.7918,-3.7939,-3.7972,-3.8002,-3.8013,-3.8057,-3.8074,-3.8106,-3.8147,-3.8198,-3.8231,-3.828,-3.8359,-3.837,-3.8393,-3.84,-3.8406,-3.8412,-3.8456,-3.8466,-3.8353,-3.8353,-3.8353,0,0,-3.7774,-3.7813,-3.7845,-3.7921,-3.7954,-3.8007,-3.7986,-3.8043,-3.8082,-3.8082,-3.8152,-3.8177,-3.8224,-3.83,-3.8335,-3.8322,-3.8446,-3.8412,-3.8416,-3.842,-3.8462,-3.8473,-3.8482,-3.8357,-3.8356,-3.8356,0,0,-3.7844,-3.788,-3.7938,-3.7973,-3.8025,-3.8047,-3.8061,-3.8112,-3.813,-3.82,-3.8202,-3.8248,-3.8335,-3.8368,-3.8397,-3.8481,-3.8478,-3.8496,-3.8532,-3.8574,-3.8583,-3.8591,-3.862,-3.863,-3.8503,-3.8503,-3.8503,0,-3.7866,-3.7947,-3.7968,-3.8025,-3.8058,-3.8063,-3.8121,-3.8154,-3.8218,-3.824,-3.8226,-3.8336,-3.8368,-3.8452,-3.8472,-3.8496,-3.8512,-3.8489,-3.858,-3.8588,-3.8596,-3.8624,-3.8635,-3.8505,-3.8505,-3.8505,-3.8505,0,-3.7971,-3.8027,-3.8068,-3.8132,-3.817,-3.8227,-3.8256,-3.8291,-3.83,-3.8322,-3.8394,-3.8433,-3.849,-3.8511,-3.8519,-3.8596,-3.8587,-3.8576,-3.8549,-3.8608,-3.8635,-3.8646,-3.8508,-3.8507,-3.8507,-3.8506,0,0,-3.8047,-3.8123,-3.8138,-3.8167,-3.8225,-3.8268,-3.8326,-3.8384,-3.8413,-3.8458,-3.8506,-3.858,-3.8572,-3.8604,-3.8616,-3.8653,-3.8716,-3.8638,-3.8639,-3.865,-3.8803,-3.8809,-3.8821,-3.8716,-3.8718,-3.872,-3.8798,0,-3.8122,-3.8226,-3.8247,-3.8336,-3.8388,-3.8394,-3.8444,-3.8485,-3.8508,-3.8554,-3.8579,-3.8631,-3.8616,-3.8636,-3.8673,-3.87,-3.8747,-3.8695,-3.8759,-3.8761,-3.8745,-3.8835,-3.8842,-3.8914,-3.8809,-3.8811,-3.8812,0,-3.8222,-3.8271,-3.8366,-3.8418,-3.8441,-3.8486,-3.854,-3.8585,-3.8631,-3.8645,-3.8682,-3.869,-3.875,-3.8722,-3.8803,-3.8768,-3.8795,-3.8813,-3.8816,-3.8821,-3.8789,-3.8841,-3.8938,-3.8948,-3.8829,-3.8827,-3.8826,0,-3.8267,-3.8356,-3.8425,-3.845,-3.8512,-3.8544,-3.8571,-3.8616,-3.8649,-3.8696,-3.8718,-3.8771,-3.88,-3.8841,-3.8862,-3.884,-3.8942,-3.8916,-3.8955,-3.8954,-3.8974,-3.8972,-3.9075,-3.8995,-3.8994,-3.8994,-3.8994,0,-3.8347,-3.8404,-3.8446,-3.8487,-3.8552,-3.8576,-3.8639,-3.8665,-3.8705,-3.8752,-3.876,-3.8804,-3.8831,-3.8878,-3.8895,-3.896,-3.8973,-3.8985,-3.8989,-3.8984,-3.8982,-3.9001,-3.8996,-3.8997,-3.8996,-3.8996,-3.8995,0,-3.8406,-3.8437,-3.8511,-3.8565,-3.858,-3.8625,-3.8671,-3.8711,-3.8736,-3.8794,-3.8809,-3.8847,-3.8903,-3.8929,-3.8998,-3.901,-3.9083,-3.9084,-3.9067,-3.9068,-3.9105,-3.9101,-3.9222,-3.9239,-3.9148,-3.9149,-3.915,0,-3.8455,-3.85,-3.8559,-3.8591,-3.862,-3.8672,-3.8707,-3.8732,-3.8767,-3.8824,-3.8857,-3.8914,-3.896,-3.9049,-3.9082,-3.9134,-3.9136,-3.9175,-3.9144,-3.9137,-3.9135,-3.9132,-3.9136,-3.918,-3.9181,-3.9181,-3.9182,0,-3.8538,-3.8551,-3.8601,-3.8656,-3.8697,-3.8742,-3.8786,-3.8812,-3.8844,-3.8883,-3.8941,-3.8977,-3.9048,-3.9104,-3.9159,-3.9186,-3.9189,-3.9192,-3.9203,-3.9198,-3.9186,-3.9192,-3.9081,-3.9188,-3.9188,-3.9187,-3.9187,-3.9187,-3.8592,-3.8632,-3.8681,-3.8736,-3.8772,-3.8813,-3.8854,-3.8884,-3.8933,-3.8993,-3.9005,-3.9067,-3.9112,-3.9187,-3.9216,-3.9264,-3.9255,-3.9272,-3.9276,-3.9279,-3.9281,-3.918,-3.9274,-3.9274,-3.9274,-3.9274,-3.9274,0,-3.8674,-3.8706,-3.8757,-3.8819,-3.8862,-3.8864,-3.8912,-3.8948,-3.9002,-3.9045,-3.9091,-3.9158,-3.9212,-3.925,-3.9305,-3.9336,-3.9339,-3.935,-3.9347,-3.9353,-3.9286,-3.927,-3.9346,-3.9346,-3.9346,-3.9346,-3.9346,-3.9346,-3.8722,-3.879,-3.8809,-3.8894,-3.8925,-3.8986,-3.9014,-3.9051,-3.9086,-3.916,-3.9206,-3.9231,-3.9272,-3.933,-3.938,-3.9389,-3.9409,-3.942,-3.9429,-3.9365,-3.9357,-3.935,-3.9335,-3.9424,-3.9424,-3.9491,-3.9492,-3.9492]},{"header":{"parameterUnit":"m.s-1","parameterCategory":1,"la1":30.2991,"la2":30.254,"lo1":-89.0895,"lo2":-89.0444,"dy":0.0017,"dx":0.0017,"nx":28,"ny":28,"refTime":"2025-04-20T21:00:00:Z","depth":0,"parameterNumber":3,"parameterNumberName":"V-component_of_WINDS"},"data":[0,0,0,0,0,0,0,0,0,0,0,0,0,0,0,0,0,0,0,0,0,0,0,0,0,0,0,0,0,0,0,0,0,0,0,0,0,0,0,0,0,0,0,0,0,0,0,0,0,0,0,0,0,0,0,0,0,0,3.243,3.2432,0,3.2618,3.262,3.2622,3.2648,3.2646,3.2644,3.2643,3.2833,3.284,3.2847,0,0,0,0,0,0,0,0,0,0,0,0,0,3.2095,3.2101,3.243,3.2432,3.2435,3.2617,3.262,3.2622,3.2648,3.2646,3.2644,3.2642,3.2831,3.2839,3.2847,0,0,0,0,0,0,0,0,0,0,0,0,0,3.2257,3.2103,3.243,3.247,3.2475,3.2617,3.262,3.2623,3.2649,3.2646,3.2643,3.2641,3.2829,3.2838,3.2848,3.2963,0,0,3.2879,3.2883,0,0,0,0,0,0,0,0,3.2248,3.227,3.2461,3.2467,3.2473,3.2607,3.2572,3.2737,3.2649,3.2583,3.2643,3.264,3.276,3.2776,3.2816,3.2972,3.298,3.288,3.2886,3.289,3.2893,0,0,0,0,0,0,0,3.2237,3.2262,3.2504,3.2464,3.2472,3.2478,3.2499,3.2603,3.2684,3.2588,3.2591,3.2613,3.2763,3.2807,3.2821,3.2983,3.288,3.2889,3.2895,3.2899,3.3244,3.3246,0,0,0,0,0,0,3.2218,3.2252,3.2498,3.251,3.2352,3.2487,3.2509,3.2567,3.2683,3.2698,3.2615,3.2613,3.2791,3.2809,3.2828,3.2971,3.289,3.29,3.2905,3.324,3.3244,3.3248,0,0,0,0,0,0,3.2211,3.224,3.2491,3.2382,3.2414,3.2495,3.2559,3.2572,3.2616,3.2703,3.2717,3.2645,3.2789,3.2814,3.293,3.2978,3.2904,3.2913,3.3237,3.3242,3.3246,3.3257,0,0,0,0,0,0,3.2201,3.2237,3.2281,3.2383,3.242,3.2589,3.2562,3.2577,3.2633,3.2633,3.2735,3.2749,3.2789,3.2915,3.294,3.2991,3.2921,3.3233,3.3239,3.3244,3.3253,3.3262,3.3269,0,0,0,0,0,3.2189,3.2276,3.2283,3.2313,3.2477,3.2592,3.2613,3.2658,3.2637,3.2682,3.2738,3.2746,3.2969,3.2926,3.2955,3.3009,3.323,3.3237,3.3244,3.3249,3.326,3.3269,0,0,0,0,0,0,3.2178,3.229,3.2299,3.2422,3.2497,3.2596,3.2654,3.2668,3.2751,3.2747,3.2799,3.2822,3.2936,3.2984,3.2935,3.3127,3.3097,3.311,3.3092,3.3103,3.3111,3.3097,3.293,0,0,0,0,0,3.219,3.2274,3.2367,3.2466,3.2504,3.2573,3.2624,3.2653,3.2733,3.2765,3.283,3.2907,3.2995,3.3051,3.3137,3.326,3.3283,3.3312,3.332,3.3326,3.3337,3.3408,3.3422,3.3271,3.3271,3.3271,0,0,3.2215,3.2286,3.2336,3.2466,3.2528,3.2614,3.2599,3.2691,3.2756,3.2779,3.2893,3.2943,3.3033,3.3154,3.321,3.3197,3.3384,3.3335,3.334,3.3347,3.3417,3.3431,3.3444,3.3275,3.3275,3.3274,0,0,3.2305,3.2367,3.2457,3.252,3.2614,3.266,3.2681,3.2779,3.2814,3.2929,3.2949,3.3027,3.3176,3.324,3.3292,3.3409,3.3419,3.3435,3.3478,3.3546,3.3558,3.3569,3.3612,3.3627,3.3445,3.3445,3.3445,0,3.2324,3.2455,3.2502,3.2594,3.2651,3.2677,3.2769,3.2827,3.2944,3.2983,3.2968,3.3158,3.322,3.3357,3.3385,3.3426,3.3453,3.3423,3.3553,3.3564,3.3575,3.3616,3.3632,3.3447,3.3446,3.3446,3.3446,0,3.2475,3.2566,3.2627,3.2741,3.2805,3.2896,3.2958,3.3017,3.304,3.3087,3.3205,3.3281,3.3383,3.3418,3.3441,3.3559,3.3548,3.3542,3.3513,3.359,3.363,3.3646,3.3449,3.3448,3.3448,3.3447,0,0,3.2562,3.2702,3.2724,3.2777,3.2883,3.2954,3.3048,3.3148,3.3199,3.3279,3.3359,3.3486,3.3482,3.3541,3.3572,3.3631,3.3721,3.3618,3.3621,3.3636,3.3858,3.3862,3.388,3.3728,3.3732,3.3734,3.3851,0,3.2666,3.2833,3.2879,3.3021,3.3106,3.3133,3.3214,3.3289,3.3336,3.3415,3.3467,3.3557,3.3543,3.358,3.364,3.3697,3.3766,3.3689,3.3804,3.3808,3.3782,3.3901,3.3906,3.4012,3.3866,3.3869,3.3871,0,3.2809,3.2893,3.3044,3.3141,3.3179,3.3251,3.3348,3.3424,3.3509,3.3539,3.3606,3.3632,3.3731,3.3697,3.3834,3.3781,3.3831,3.3866,3.3871,3.3884,3.3844,3.3918,3.4047,3.4063,3.3896,3.3894,3.3892,0,3.2859,3.301,3.3121,3.3165,3.3281,3.3331,3.3382,3.3465,3.3523,3.3608,3.3647,3.3741,3.3793,3.3866,3.3917,3.3887,3.4051,3.4021,3.408,3.4079,3.4114,3.4111,3.4253,3.4144,3.4144,3.4143,3.4143,0,3.2971,3.3062,3.3145,3.3213,3.3317,3.3369,3.347,3.3522,3.3596,3.3675,3.3703,3.3776,3.3838,3.3921,3.3961,3.407,3.4093,3.412,3.413,3.4119,3.4115,3.4152,3.4147,3.4148,3.4147,3.4146,3.4145,0,3.3045,3.3104,3.3226,3.3326,3.3354,3.3426,3.3512,3.358,3.3628,3.3728,3.3754,3.383,3.3928,3.3986,3.411,3.4137,3.4258,3.4264,3.423,3.4234,3.4291,3.4285,3.4462,3.4489,3.4361,3.4362,3.4363,0,3.3112,3.3184,3.3292,3.3347,3.3399,3.3487,3.3547,3.3601,3.3663,3.3767,3.3822,3.3922,3.4005,3.4161,3.4227,3.4323,3.4332,3.4388,3.4346,3.4333,3.4334,3.433,3.4338,3.4395,3.4396,3.4397,3.4397,0,3.3227,3.3253,3.3338,3.3435,3.3506,3.3584,3.3662,3.3706,3.3774,3.3841,3.3943,3.4007,3.4135,3.4234,3.4335,3.4388,3.4405,3.441,3.4429,3.4418,3.4396,3.441,3.425,3.4406,3.4405,3.4404,3.4404,3.4403,3.3301,3.3366,3.3453,3.3548,3.3613,3.3685,3.3754,3.3812,3.3897,3.4006,3.4033,3.4139,3.4225,3.4363,3.4418,3.4502,3.4493,3.452,3.4527,3.4534,3.4536,3.4382,3.4521,3.4521,3.452,3.452,3.452,0,3.3418,3.3476,3.3562,3.3671,3.3746,3.3756,3.3843,3.3905,3.3999,3.4078,3.4159,3.4277,3.4374,3.4448,3.4548,3.4602,3.4612,3.4626,3.4623,3.4635,3.4538,3.4512,3.4616,3.4616,3.4616,3.4616,3.4616,3.4616,3.3488,3.3599,3.3636,3.378,3.3838,3.3943,3.3992,3.406,3.4123,3.4253,3.4334,3.4382,3.446,3.4566,3.4656,3.4675,3.4711,3.4724,3.4745,3.4652,3.4642,3.4632,3.4608,3.4731,3.4731,3.4836,3.4837,3.4838]}]]